Regional Weather Roundup
Issued by NWS

Home | Current Version | Previous Version | Graphics & Text | Print | Product List | Glossary On
Versions: 1 2 3 4 5 6 7 8 9 10 11 12 13 14 15 16 17 18 19 20 21 22 23 24 25 26 27 28 29 30 31 32 33 34 35 36 37 38 39 40 41 42 43 44 45 46 47 48 49 50
000
ASUS43 KFSD 240010
RWRSD

WEATHER ROUNDUP FOR SOUTH DAKOTA
NATIONAL WEATHER SERVICE SIOUX FALLS SD
700 PM CDT TUE AUG 23 2016

NOTE: "FAIR" INDICATES FEW OR NO CLOUDS BELOW 12,000 FEET WITH NO
SIGNIFICANT WEATHER AND/OR OBSTRUCTIONS TO VISIBILITY.


SDZ001>005-009-010-012>017-240100-
NORTHWEST AND NORTH CENTRAL SOUTH DAKOTA

CITY           SKY/WX    TMP DP  RH WIND       PRES   REMARKS
BUFFALO          N/A     77  29  17 NW22      29.91R
FAITH            N/A     79  34  19 NW20      29.92R
MOBRIDGE       SUNNY     82  43  25 N12G22    29.81R
$$

SDZ012>016-024>037-041>051-057-063-072>074-240100-
SOUTHWEST AND SOUTH CENTRAL SOUTH DAKOTA

CITY           SKY/WX    TMP DP  RH WIND       PRES   REMARKS
RAPID CTY ARPT CLOUDY    79  32  18 N18       29.97S
PIERRE         SUNNY     82  46  28 N16G25    29.82R
CUSTER         SUNNY     70  31  23 E9        30.10R
ELLSWORTH AFB  SUNNY     78  31  18 N18       29.97S
PHILIP         MOSUNNY   83  34  17 N16       29.89R
PINE RIDGE     PTSUNNY   76  35  22 NE8       29.98R
WINNER         FAIR      84  52  33 NW18G25   29.84R
$$

SDZ004>011-016>023-039-040-240100-
NORTHEAST SOUTH DAKOTA

CITY           SKY/WX    TMP DP  RH WIND       PRES   REMARKS
ABERDEEN       CLOUDY    80  67  64 NW18G25   29.73R
WATERTOWN      PTSUNNY   75  68  78 S14       29.78F
BROOKINGS      CLOUDY    71  66  84 S8        29.80F
SISSETON         N/A     78  66  66 S14       29.74F
$$

SDZ017-020-022-023-036>040-048>070-240100-
SOUTHEAST SOUTH DAKOTA

CITY           SKY/WX    TMP DP  RH WIND       PRES   REMARKS
SIOUX FALLS    CLOUDY    74  70  87 S14       29.79F
HURON          SUNNY     80  69  69 S14G25    29.74S
CHAMBERLAIN    SUNNY     84  58  41 NW17G29   29.79R
MITCHELL       SUNNY     81  71  71 SE12      29.76F
YANKTON        SUNNY     77  72  83 E9        29.76F
$$

ABBREVIATIONS USED IN REMARKS
   TC - TEMPERATURE IN CELSIUS
  WCI - WIND CHILL INDEX
   HX - HEAT INDEX
  VSB - VISIBILITY





USA.gov is the U.S. government's official web portal to all federal, state and local government web resources and services.